This is the latest recevied weather packets stored in our database for station/object N4NVD-13. If no packets are shown the sender has not sent any weather packets the latest 10 day(s).
| Time | Temp. | Humidity | Pressure | Rain* | Wind** | Luminosity | Snow |
|---|---|---|---|---|---|---|---|
| 1777810039 | 9.44° C | 99% | 1021 hPa | 0 mm | - | 20 W/m² | - |
| 1777809737 | 8.89° C | 99% | 1021.1 hPa | 0 mm | - | 13 W/m² | - |
| 1777809434 | 9.44° C | 99% | 1021.1 hPa | 0 mm | - | 10 W/m² | - |
| 1777809132 | 8.89° C | 99% | 1021.1 hPa | 0 mm | - | 6 W/m² | - |
| 1777808830 | 8.89° C | 99% | 1021.4 hPa | 0 mm | - | 4 W/m² | - |
| 1777808526 | 8.89° C | 99% | 1021.3 hPa | 0 mm | - | 1 W/m² | - |
| 1777808223 | 8.89° C | 99% | 1021 hPa | 0 mm | - | 0 W/m² | - |
| 1777807923 | 8.89° C | 99% | 1021.1 hPa | 0 mm | - | 0 W/m² | - |
| 1777807619 | 9.44° C | 99% | 1020.9 hPa | 0 mm | - | 0 W/m² | - |
| 1777807316 | 8.89° C | 99% | 1020.8 hPa | 0 mm | - | 0 W/m² | - |
| 1777807012 | 8.89° C | 99% | 1020.6 hPa | 0 mm | - | 0 W/m² | - |
| 1777806704 | 8.89° C | 99% | 1020.6 hPa | 0 mm | - | 0 W/m² | - |
| 1777806399 | 8.89° C | 99% | 1020.6 hPa | 0 mm | - | 0 W/m² | - |
| 1777806097 | 8.89° C | 99% | 1020.5 hPa | 0 mm | - | 0 W/m² | - |
| 1777805792 | 9.44° C | 99% | 1020.5 hPa | 0 mm | - | 0 W/m² | - |
| 1777805490 | 9.44° C | 99% | 1020.3 hPa | 0 mm | - | 0 W/m² | - |
| 1777805188 | 9.44° C | 99% | 1020.5 hPa | 0 mm | - | 0 W/m² | - |
| 1777804886 | 9.44° C | 99% | 1020.3 hPa | 0 mm | - | 0 W/m² | - |
| 1777804583 | 9.44° C | 99% | 1020.2 hPa | 0 mm | - | 0 W/m² | - |
| 1777804280 | 9.44° C | 99% | 1020.2 hPa | 0 mm | - | 0 W/m² | - |
| 1777803977 | 9.44° C | 99% | 1020 hPa | 0 mm | - | 0 W/m² | - |
| 1777803674 | 9.44° C | 99% | 1020.1 hPa | 0 mm | - | 0 W/m² | - |
| 1777803369 | 8.89° C | 99% | 1020.1 hPa | 0 mm | - | 0 W/m² | - |
| 1777803068 | 9.44° C | 99% | 1020.2 hPa | 0 mm | - | 0 W/m² | - |
| 1777802765 | 9.44° C | 99% | 1019.8 hPa | 0 mm | - | 0 W/m² | - |
* Rain latest hour (hover to see other rain measurements)
** Current wind speed in m/s (hover to see current wind gust speed)